Main page


Airports :

Ardabil, Iran

Ardabil Airport

latitude: 38-19-35N, longitude: 048-25-28E, elevation: 1315 m

Current weather observation

The report was made 28 minutes ago, at 09:30 UTC
Wind 14 kt from the Southwest, varying between South and West
Temperature 13°C
Humidity 41%
Pressure 1016 hPa
Visibility 10 km or more
no clouds below 1500 m and no cumulonimbus

METAR: OITL 180930Z 22014KT 190V280 CAVOK 13/00 Q1016

Time: 13:28 (09:58 UTC)

TAF: missing

Weather observations and forecasts of more than 4000 airports (METAR and TAF reports).

The available stations are represented by yellow and red dots on the map.

Hover mouse over dot to see the name of the station.

Then click to see weather observations and forecasts.

To change the map : click on the green buttons with a black cross to zoom in, on the green button with a dash to zoom out, or on the green arrows for adjacent maps.